Greenville, AL

7:55 AM CDT on May 23, 2017 (GMT -0500)
Greenville Municipal

Weather History for KPRN - March, 2013

Change the Weather History Date:

Tuesday, March 12, 2013

  Actual Average Record
Temperature  
Mean Temperature 49 °F -  
Max Temperature 61 °F 69 °F 89 °F (1955)
Min Temperature 37 °F 45 °F 24 °F (1969)
Degree Days  
Heating Degree Days 16    
Moisture  
Dew Point 32 °F    
Average Humidity 57    
Maximum Humidity 89    
Minimum Humidity 30    
Precipitation  
Precipitation 0.00 in - - ()
Sea Level Pressure  
Sea Level Pressure 30.06 in    
Wind  
Wind Speed 9 mph (NW)    
Max Wind Speed 15 mph    
Max Gust Speed 22 mph    
Visibility 10 miles    
Events      
Averages and records for this station are not official NWS values.
T = Trace of Precipitation, MM = Missing Value Source: NWS Daily Summary

Daily Weather History Graph

Daily Weather History Graph

Search for Another Location

Airport or City:

Trip Planner

Search our weather history database for the weather conditions in past years. The results will help you decide how hot, cold, wet, or windy it might be!

Date:

Astronomy

Mar. 12, 2013 Rise Set
Actual Time 7:00 AM CDT 6:52 PM CDT
Civil Twilight 6:35 AM CDT 7:16 PM CDT
Nautical Twilight 6:07 AM CDT 7:45 PM CDT
Astronomical Twilight 5:39 AM CDT 8:13 PM CDT
Moon 7:11 AM CDT (3/12) 7:59 PM CDT (3/12)
Length of Visible Light 12h 41m
Length of Day
11h 52m
New Moon, 1% of the Moon is Illuminated
Mar 12
New Moon
Mar 19
First Quarter
Mar 27
Full
Apr 2
Last Quarter
Apr 10
New

Hourly Weather History & Observations

Time (CDT) Temp. Windchill Dew Point Humidity Pressure Visibility Wind Dir Wind Speed Gust Speed Precip Events Conditions
12:56 AM 43.0 °F 38.8 °F 39.0 °F 86% 29.94 in 10.0 mi NW 6.9 mph - N/A   Clear
1:56 AM 43.0 °F 36.8 °F 39.0 °F 86% 29.96 in 10.0 mi NW 11.5 mph - N/A   Clear
2:56 AM 41.0 °F 34.7 °F 37.9 °F 89% 29.96 in 10.0 mi NNW 10.4 mph 18.4 mph N/A   Clear
3:56 AM 39.9 °F 33.9 °F 37.0 °F 89% 29.97 in 10.0 mi NNW 9.2 mph - N/A   Clear
4:56 AM 39.0 °F 31.4 °F 35.1 °F 86% 29.99 in 10.0 mi NNW 12.7 mph - N/A   Clear
5:56 AM 37.9 °F 32.7 °F 34.0 °F 86% 30.01 in 10.0 mi NNW 6.9 mph - N/A   Clear
6:56 AM 37.0 °F 34.5 °F 33.1 °F 86% 30.02 in 10.0 mi NNW 3.5 mph - N/A   Clear
7:56 AM 39.0 °F 33.4 °F 33.1 °F 79% 30.05 in 10.0 mi NNW 8.1 mph - N/A   Clear
8:56 AM 41.0 °F 33.9 °F 32.0 °F 70% 30.07 in 10.0 mi NNW 12.7 mph - N/A   Clear
9:56 AM 46.0 °F 39.6 °F 30.9 °F 56% 30.09 in 10.0 mi NNW 15.0 mph 20.7 mph N/A   Clear
10:56 AM 48.9 °F - 30.0 °F 48% 30.09 in 10.0 mi NNW 15.0 mph 20.7 mph N/A   Clear
11:56 AM 52.0 °F - 28.9 °F 41% 30.10 in 10.0 mi NNW 11.5 mph 21.9 mph N/A   Clear
12:56 PM 55.9 °F - 28.9 °F 36% 30.09 in 10.0 mi NNW 11.5 mph - N/A   Clear
1:56 PM 57.9 °F - 28.9 °F 33% 30.07 in 10.0 mi NNW 6.9 mph - N/A   Clear
2:56 PM 59.0 °F - 28.9 °F 32% 30.05 in 10.0 mi NNW 12.7 mph 17.3 mph N/A   Clear
3:56 PM 60.1 °F - 30.0 °F 32% 30.06 in 10.0 mi NNW 11.5 mph 18.4 mph N/A   Clear
4:56 PM 61.0 °F - 28.9 °F 30% 30.06 in 10.0 mi WNW 10.4 mph - N/A   Clear
5:56 PM 60.1 °F - 28.0 °F 30% 30.07 in 10.0 mi NW 10.4 mph - N/A   Clear
6:56 PM 57.0 °F - 30.9 °F 37% 30.09 in 10.0 mi WNW 4.6 mph - N/A   Clear
7:56 PM 54.0 °F - 32.0 °F 43% 30.12 in 10.0 mi West 4.6 mph - N/A   Clear
8:56 PM 51.1 °F - 34.0 °F 52% 30.13 in 10.0 mi West 5.8 mph - N/A   Clear
9:56 PM 52.0 °F - 33.1 °F 49% 30.14 in 10.0 mi WNW 5.8 mph - N/A   Clear
10:56 PM 52.0 °F - 33.1 °F 49% 30.15 in 10.0 mi NW 8.1 mph - N/A   Clear
11:56 PM 50.0 °F - 33.1 °F 52% 30.17 in 10.0 mi WNW 5.8 mph - N/A   Clear